This demonstration page uses our WeatherBlox Daily Observations layout. Learn more.

Left ArrowRight Arrow

Hourly Observations for June 21, 2017

Temp ( °F °C ) Dew Point ( °F °C ) Humidity (%) Winds ( mph kmh ) Pressure ( in mb ) Visibility ( mi km ) Precip ( " mm )
12:53 am 00:53 Cloudy 71 21.7 71 21.7 100 100 Calm 30.06 1018 10 16 0.00 0.03
1:16 am 01:16 Cloudy 71 21.7 71 21.7 100 100 Calm 30.06 1018 10 16 0.00 0.00
1:32 am 01:32 Cloudy 71 21.7 71 21.7 100 100 S 3 6 30.06 1018 10 16 0.00 0.00
1:53 am 01:53 Cloudy 71 21.7 71 21.7 100 100 Calm 30.05 1018 10 16 0.00 0.00
2:10 am 02:10 Cloudy 71 21.7 71 21.7 100 100 SSE 3 6 30.03 1017 10 16 0.00 0.00
2:21 am 02:21 Cloudy 71 21.7 71 21.7 100 100 Calm 30.03 1017 10 16 0.00 0.00
2:28 am 02:28 Cloudy 71 21.7 71 21.7 100 100 Calm 30.03 1017 10 16 0.00 0.00
2:51 am 02:51 Mostly Cloudy 72 22 72 22 100 100 SE 3 6 30.03 1017 10 16 0.00 0.00
2:53 am 02:53 Partly Cloudy 71 21.7 71 21.7 100 100 SE 3 6 30.04 1017 10 16 0.00 0.00
3:27 am 03:27 Cloudy 70 21.1 70 21.1 100 100 Calm 30.06 1018 10 16 0.00 0.00
3:36 am 03:36 Cloudy 71 21.7 71 21.7 100 100 Calm 30.03 1017 10 16 0.00 0.00
3:53 am 03:53 Cloudy 71 21.7 71 21.7 100 100 Calm 30.04 1017 10 16 0.00 0.00
4:09 am 04:09 Mostly Cloudy 71 21.7 71 21.7 100 100 Calm 30.03 1017 10 16 0.00 0.00
4:42 am 04:42 Mostly Cloudy 71 21.7 71 21.7 100 100 Calm 30.03 1017 10 16 0.00 0.00
4:53 am 04:53 Cloudy 71 21.7 71 21.7 100 100 Calm 30.05 1018 10 16 0.00 0.00
5:32 am 05:32 Cloudy 71 21.7 71 21.7 100 100 Calm 30.06 1018 10 16 0.00 0.00
5:42 am 05:42 Cloudy 71 21.7 71 21.7 100 100 Calm 30.06 1018 10 16 0.00 0.00
5:53 am 05:53 Cloudy 70 21.1 70 21.1 100 100 Calm 30.06 1018 10 16 0.00 0.00
6:15 am 06:15 Cloudy 71 21.7 71 21.7 100 100 Calm 30.06 1018 10 16 0.00 0.00
6:40 am 06:40 Cloudy 71 21.7 71 21.7 100 100 Calm 30.06 1018 10 16 0.00 0.00
6:53 am 06:53 Cloudy 71 21.7 71 21.7 100 100 Calm 30.07 1018 10 16 0.00 0.00
7:48 am 07:48 Partly Cloudy 72 22 72 22 100 100 Calm 30.06 1018 10 16 0.00 0.00
7:53 am 07:53 Partly Cloudy 72 22.2 71 21.7 97 97 Calm 30.06 1018 10 16 0.00 0.00
8:53 am 08:53 Mostly Sunny 72 22.2 70 21.1 94 94 VRB 3 6 30.08 1019 10 16 0.00 0.00
9:53 am 09:53 Cloudy 74 23.3 72 22.2 94 94 NE 3 6 30.07 1018 10 16 0.00 0.00
10:53 am 10:53 Cloudy 76 24.4 72 22.2 88 88 VRB 5 7 30.08 1019 10 16 0.00 0.00
11:09 am 11:09 Cloudy 76 24.4 72 22.2 88 88 ENE 6 9 30.09 1019 10 16 0.00 0.00
11:53 am 11:53 Cloudy 78 25.6 72 22.2 82 82 ESE 7 11 30.08 1019 10 16 0.00 0.00
12:53 pm 12:53 Cloudy 78 25.6 72 22.2 82 82 SE 7 11 30.10 1019 10 16 0.00 0.00
1:00 pm 13:00 Cloudy 78 25.6 72 22.2 82 82 ESE 8 13 30.09 1019 10 16 0.00 0.00
1:53 pm 13:53 Cloudy 78 25.6 72 22.2 82 82 S 7 11 30.09 1019 10 16 0.00 0.00
2:53 pm 14:53 Mostly Cloudy 79 26.1 72 22.2 79 79 E 5 7 30.07 1018 10 16 0.00 0.00
3:29 pm 15:29 Cloudy 79 26.1 72 22.2 79 79 S 6 9 30.06 1018 10 16 0.00 0.00
3:43 pm 15:43 Cloudy 79 26.1 72 22.2 79 79 SSE 6 9 30.06 1018 10 16 0.00 0.00
3:53 pm 15:53 Cloudy 79 26.1 73 22.8 82 82 SE 6 9 30.07 1018 10 16 0.00 0.00
4:53 pm 16:53 Cloudy 78 25.6 73 22.8 85 85 Calm 30.06 1018 10 16 0.00 0.03
5:53 pm 17:53 Partly Cloudy 78 25.6 73 22.8 85 85 S 3 6 30.06 1018 10 16 0.00 0.00
6:42 pm 18:42 Mostly Cloudy 78 25.6 73 22.8 85 85 Calm 30.06 1018 10 16 0.00 0.00
6:51 pm 18:51 Cloudy 77 25 73 23 89 89 SSW 5 7 30.06 1018 10 16 0.00 0.00
6:53 pm 18:53 Cloudy 77 25 74 23.3 90 90 S 3 6 30.06 1018 10 16 0.00 0.00
7:53 pm 19:53 Cloudy with Light Rain 71 21.7 70 21.1 96 96 WSW 3 6 30.08 1019 10 16 0.03 0.76
8:53 pm 20:53 Mostly Cloudy with Light Rain 71 21.7 71 21.7 100 100 Calm 30.08 1019 10 16 0.00 0.03
9:53 pm 21:53 Clear with Light Rain 71 21.7 71 21.7 100 100 ENE 3 6 30.08 1019 10 16 0.00 0.03
10:25 pm 22:25 Mostly Clear with Light Rain 71 21.7 71 21.7 100 100 Calm 30.12 1020 10 16 0.01 0.25
10:53 pm 22:53 Clear with Light Rain 71 21.7 71 21.7 100 100 Calm 30.09 1019 10 16 0.01 0.25
11:53 pm 23:53 Clear with Light Rain 71 21.7 71 21.7 100 100 Calm 30.09 1019 10 16 0.00 0.03

Powered by AerisWeather